This is the latest recevied weather packets stored in our database for station/object N8HON. If no packets are shown the sender has not sent any weather packets the latest 10 day(s).
| Time | Temp. | Humidity | Pressure | Rain* | Wind** | Luminosity | Snow |
|---|---|---|---|---|---|---|---|
| 1778166907 | 12.78° C | 66% | 1010.2 hPa | 0 mm | - | 333 W/m² | - |
| 1778166604 | 12.78° C | 67% | 1010.4 hPa | 0 mm | - | 375 W/m² | - |
| 1778166301 | 12.78° C | 64% | 1010.1 hPa | 0 mm | - | 880 W/m² | - |
| 1778165997 | 13.33° C | 64% | 1010.4 hPa | 0 mm | - | 293 W/m² | - |
| 1778165693 | 12.78° C | 61% | 1010.6 hPa | 0 mm | - | 307 W/m² | - |
| 1778165390 | 12.78° C | 63% | 1010.6 hPa | 0 mm | - | 250 W/m² | - |
| 1778165087 | 13.89° C | 62% | 1010.6 hPa | 0 mm | - | 363 W/m² | - |
| 1778164784 | 12.78° C | 62% | 1010.9 hPa | 0 mm | - | 673 W/m² | - |
| 1778164482 | 12.78° C | 66% | 1010.6 hPa | 0 mm | - | 383 W/m² | - |
| 1778164178 | 12.22° C | 66% | 1010.8 hPa | 0 mm | - | 675 W/m² | - |
| 1778163874 | 12.22° C | 64% | 1010.9 hPa | 0 mm | - | 311 W/m² | - |
| 1778163571 | 11.67° C | 67% | 1011 hPa | 0 mm | - | 487 W/m² | - |
| 1778163267 | 11.67° C | 67% | 1011 hPa | 0 mm | - | 397 W/m² | - |
| 1778162964 | 11.11° C | 68% | 1011.1 hPa | 0 mm | - | 270 W/m² | - |
| 1778162660 | 10.56° C | 70% | 1011.3 hPa | 0 mm | - | 208 W/m² | - |
| 1778162358 | 10.56° C | 72% | 1011.3 hPa | 0 mm | - | 115 W/m² | - |
| 1778162055 | 10.56° C | 71% | 1011.4 hPa | 0 mm | - | 89 W/m² | - |
| 1778161752 | 10° C | 74% | 1011.2 hPa | 0 mm | - | 95 W/m² | - |
| 1778161448 | 10° C | 73% | 1011.5 hPa | 0 mm | - | 80 W/m² | - |
| 1778161144 | 10° C | 74% | 1011.3 hPa | 0 mm | - | 107 W/m² | - |
| 1778160840 | 10.56° C | 78% | 1011.4 hPa | 0 mm | - | 93 W/m² | - |
| 1778160539 | 10° C | 81% | 1011.5 hPa | 0 mm | - | 93 W/m² | - |
| 1778160235 | 10° C | 81% | 1011.6 hPa | 0 mm | - | 82 W/m² | - |
| 1778159932 | 10° C | 82% | 1011.4 hPa | 0 mm | - | 88 W/m² | - |
| 1778159629 | 10° C | 82% | 1011.7 hPa | 0 mm | - | 63 W/m² | - |
* Rain latest hour (hover to see other rain measurements)
** Current wind speed in m/s (hover to see current wind gust speed)